sat.trackr.live / text

‹ back to catalog

YAM-11

NORAD 68991 · 2026-100M

PAYLOAD ACTIVE UNKNOWN

§ Identity

Operator
Country
US
Launch date
2026-05-03
Launch site
AFWTR
Launch vehicle
Mass (kg)
RCS (m²)

External: N2YO · Heavens-Above · Gunter

§ Orbital elements

Epoch: 2026-09-19T23:33:34.195392Z

Period
96.62 min
Inclination
97.7728°
Eccentricity
0.0001953
Mean motion
14.90414192 rev/d
Perigee alt
595.3 km
Apogee alt
598.0 km
Semi-major
6,974.8 km
B*
9.8689e-5
RAAN
158.7136°
Arg perigee
79.5997°
Mean anomaly
280.5441°
Rev number
2,081

§ Raw data

YAM-111 68991U 26100M   26262.98164578  .00000906  00000+0  98689-4 0  99962 68991  97.7728 158.7136 0001953  79.5997 280.5441 14.90414192 20810

JSON: /api/v1/satellites/68991 · /tle

For live sub-satellite position, see the globe view (requires WebGL).

§ Visibility from observer

Set your observer location to see the next 7 days of passes ≥ 10°. The values pass through the URL so the page stays shareable.

No JS? Fill the form by hand. The geolocation button needs JavaScript.